Location: Avenches
(46.8809°N, 7.0410°E)
Time: 11:48:48
(UTC+00:00)

ADEOS Rocket - Pass Details

Date: 30 March 2020
Orbit: 858 x 1307 km, 98.7° (Epoch: 27 May)

Event Time Altitude Azimuth Distance (km) Brightness Sun altitude
Rises 18:22:07 0° 13° (NNE) 4,060 6.2 -4.8°
Reaches altitude 10° 18:24:50 10° 13° (NNE) 3,033 5.6 -5.2°
Maximum altitude 18:31:43 82° 287° (WNW) 1,061 3.3 -6.4°
Drops below altitude 10° 18:37:48 10° 200° (SSW) 2,705 5.4 -7.4°
Sets 18:40:07 0° 200° (SSW) 3,596 6.0 -7.8°
